# PBO H2O Data Portal - http://xenon.colorado.edu/portal 
# created 24-Dec-2017 
# p208    39.109302   237.696131    74.3  / station Lat. Lon. Elev.(m)
# PBO H2O Product Release Version   2.5 
# Meterological Data 
# The NLDAS and insitu met data have been reformatted by CU 
# Quality of NLDAS data is the responsibility of NASA GSFC 
# Met data quality is the responsibility of UNAVCO (http://pbo.unavco.org) 
# UNITS: Precipitation (mm) Temperature (C) 
# NLDAS data are in columns 5-8; Data from Vaisala WXT520 Sensor are in columns 9-12 
# Year, Month, Day, Dayofyear, Tavg, Tmin, Tmax, Precip, Tavg, Tmin, Tmax, Precip 
2006,01,01,001,  8.3,  7.2, 10.8, 10.7,,,,, 
2006,01,02,002,  8.9,  7.4, 11.3, 15.6,,,,, 
2006,01,03,003,  8.3,  6.5, 11.7,  0.6,,,,, 
2006,01,04,004,  9.7,  7.8, 13.9,  2.9,,,,, 
2006,01,05,005, 11.0,  8.0, 16.1,  0.0,,,,, 
2006,01,06,006, 12.3,  9.6, 17.1,  0.0,,,,, 
2006,01,07,007, 11.8,  7.9, 17.1,  0.4,,,,, 
2006,01,08,008,  8.6,  4.7, 12.9,  0.0,,,,, 
2006,01,09,009,  8.1,  4.3, 13.0,  0.0,,,,, 
2006,01,10,010,  8.1,  5.7, 12.7,  0.0,,,,, 
2006,01,11,011,  9.8,  8.2, 13.2,  0.8,,,,, 
2006,01,12,012, 10.0,  7.3, 13.9,  0.0,,,,, 
2006,01,13,013, 10.7,  9.2, 13.4,  0.0,,,,, 
2006,01,14,014,  9.2,  7.5, 12.0,  9.4,,,,, 
2006,01,15,015,  5.9,  1.7,  9.8,  0.0,,,,, 
2006,01,16,016,  6.0,  3.7,  9.7,  0.0,,,,, 
2006,01,17,017,  8.1,  6.7, 10.0,  0.0,,,,, 
2006,01,18,018,  7.1,  5.2,  9.8,  8.4,,,,, 
2006,01,19,019,  6.4,  2.7, 10.6,  0.0,,,,, 
2006,01,20,020,  6.1,  2.3, 10.6,  0.0,,,,, 
2006,01,21,021,  7.7,  5.2, 11.4,  2.3,,,,, 
2006,01,22,022,  7.3,  4.2, 11.3,  0.0,,,,, 
2006,01,23,023,  8.4,  5.1, 14.4,  0.0,,,,, 
2006,01,24,024,  9.5,  4.9, 15.2,  0.0,,,,, 
2006,01,25,025,  9.5,  4.5, 15.0,  0.0,,,,, 
2006,01,26,026,  8.0,  3.8, 13.6,  0.2,,,,, 
2006,01,27,027,  7.6,  4.2, 11.4,  1.0,,,,, 
2006,01,28,028,  8.1,  7.0, 11.6,  3.6,,,,, 
2006,01,29,029,  7.1,  5.0, 10.4,  3.3,,,,, 
2006,01,30,030,  9.6,  8.7, 11.0,  3.1,,,,, 
2006,01,31,031,  6.7,  2.2, 11.4,  0.0,,,,, 
2006,02,01,032,  8.7,  6.9, 11.5,  2.5,,,,, 
2006,02,02,033, 10.5,  8.7, 14.9,  1.2,,,,, 
2006,02,03,034, 12.1,  7.8, 16.9,  0.0,,,,, 
2006,02,04,035, 12.0,  9.0, 17.0,  0.8,,,,, 
2006,02,05,036,  9.0,  5.1, 14.5,  0.0,,,,, 
2006,02,06,037,  8.7,  3.2, 16.5,  0.0,,,,, 
2006,02,07,038, 11.4,  6.1, 19.1,  0.0,,,,, 
2006,02,08,039, 12.3,  7.4, 19.6,  0.0,,,,, 
2006,02,09,040, 12.2,  6.8, 19.2,  0.0,,,,, 
2006,02,10,041, 11.9,  6.2, 18.7,  0.0,,,,, 
2006,02,11,042, 12.2,  7.4, 18.6,  0.0,,,,, 
2006,02,12,043, 12.5,  7.5, 19.5,  0.0,,,,, 
2006,02,13,044, 13.0,  7.7, 19.6,  0.0,,,,, 
2006,02,14,045, 12.6,  8.6, 19.6,  0.0,,,,, 
2006,02,15,046,  6.2,  0.4, 14.8,  0.0,,,,, 
2006,02,16,047,  4.9,  0.6, 10.0,  0.0,,,,, 
2006,02,17,048,  4.4,  1.5,  8.9,  0.5,,,,, 
2006,02,18,049,  4.1,  1.4,  7.7,  0.0,,,,, 
2006,02,19,050,  4.6,  2.1,  8.6,  1.9,,,,, 
2006,02,20,051,  4.6,  0.1, 10.8,  0.0,,,,, 
2006,02,21,052,  5.6,  1.3, 12.7,  0.0,,,,, 
2006,02,22,053,  7.7,  2.8, 16.1,  0.0,,,,, 
2006,02,23,054, 10.2,  4.5, 17.7,  0.0,,,,, 
2006,02,24,055, 11.2,  5.1, 18.2,  0.0,,,,, 
2006,02,25,056, 11.9,  6.2, 18.3,  0.0,,,,, 
2006,02,26,057, 10.7,  6.7, 16.8,  1.5,,,,, 
2006,02,27,058,  8.5,  6.2, 12.3, 37.8,,,,, 
2006,02,28,059, 10.1,  7.5, 12.4, 30.7,,,,, 
2006,03,01,060,  7.5,  3.2, 12.4,  1.3,,,,, 
2006,03,02,061,  8.1,  4.2, 11.9,  4.2,,,,, 
2006,03,03,062,  6.5,  4.0, 10.4,  8.3,,,,, 
2006,03,04,063,  5.2,  1.4, 10.9,  0.0,,,,, 
2006,03,05,064,  8.3,  6.7, 10.7, 16.5,,,,, 
2006,03,06,065,  8.6,  7.2, 10.6, 34.6,,,,, 
2006,03,07,066,  7.8,  6.1, 10.4,  1.9,,,,, 
2006,03,08,067,  6.8,  2.7, 11.5,  0.0,,,,, 
2006,03,09,068,  8.0,  4.6, 11.3,  0.0,,,,, 
2006,03,10,069,  4.3,  0.9,  8.8,  0.0,,,,, 
2006,03,11,070,  4.5,  2.0,  7.9,  0.9,,,,, 
2006,03,12,071,  4.5,  2.2,  8.2,  1.1,,,,, 
2006,03,13,072,  4.5,  0.8,  8.8,  1.2,,,,, 
2006,03,14,073,  6.3,  4.5,  9.4, 12.7,,,,, 
2006,03,15,074,  6.8,  4.6, 10.3,  0.6,,,,, 
2006,03,16,075,  7.9,  6.7, 10.4,  0.0,,,,, 
2006,03,17,076,  8.3,  6.2, 11.8,  7.6,,,,, 
2006,03,18,077,  7.5,  3.6, 12.8,  0.4,,,,, 
2006,03,19,078,  7.6,  3.0, 14.1,  0.0,,,,, 
2006,03,20,079,  6.3,  2.7, 14.2,  5.7,,,,, 
2006,03,21,080,  5.7,  3.4, 10.1,  0.6,,,,, 
2006,03,22,081,  8.7,  5.5, 14.7,  2.9,,,,, 
2006,03,23,082, 11.0,  8.0, 14.9,  0.0,,,,, 
2006,03,24,083, 11.2,  9.6, 14.8,  3.1,,,,, 
2006,03,25,084,  9.4,  6.8, 13.4,  8.5,,,,, 
2006,03,26,085,  8.1,  3.8, 15.2,  0.0,,,,, 
2006,03,27,086, 10.8,  7.2, 15.5,  0.4,,,,, 
2006,03,28,087,  9.7,  7.1, 12.8,  4.1,,,,, 
2006,03,29,088,  8.2,  6.5, 12.3, 11.2,,,,, 
2006,03,30,089,  9.5,  7.4, 13.1,  0.6,,,,, 
2006,03,31,090,  8.9,  7.0, 12.3, 10.2,,,,, 
2006,04,01,091,  8.1,  6.2, 11.5,  6.6,,,,, 
2006,04,02,092,  9.4,  7.8, 12.2,  0.9,,,,, 
2006,04,03,093,  9.6,  8.0, 12.3, 22.4,,,,, 
2006,04,04,094,  8.9,  7.3, 12.2,  7.0,,,,, 
2006,04,05,095,  9.2,  5.9, 13.1,  2.1,,,,, 
2006,04,06,096,  9.2,  5.0, 14.5,  0.0,,,,, 
2006,04,07,097, 11.8,  8.8, 16.3,  0.0,,,,, 
2006,04,08,098, 10.1,  8.0, 14.7,  2.8,,,,, 
2006,04,09,099, 10.2,  8.0, 13.7,  0.5,,,,, 
2006,04,10,100, 10.4,  8.2, 13.7,  1.0,,,,, 
2006,04,11,101,  9.0,  7.5, 12.6, 15.6,,,,, 
2006,04,12,102, 10.5,  9.1, 13.3, 36.6,,,,, 
2006,04,13,103, 12.7,  9.5, 20.0,  1.7,,,,, 
2006,04,14,104, 15.2, 11.6, 20.3,  1.1,,,,, 
2006,04,15,105, 11.5,  8.5, 18.6,  0.0,,,,, 
2006,04,16,106,  8.7,  7.3, 11.8, 11.5,,,,, 
2006,04,17,107,  7.6,  2.5, 13.4,  1.6,,,,, 
2006,04,18,108,  9.7,  4.9, 17.4,  0.0,,,,, 
2006,04,19,109, 13.8,  8.7, 20.5,  0.0,,,,, 
2006,04,20,110, 15.9, 10.4, 21.4,  0.0,,,,, 
2006,04,21,111, 15.9, 12.0, 21.4,  0.0,,,,, 
2006,04,22,112, 13.8, 10.3, 20.1,  2.2,,,,, 
2006,04,23,113, 12.7,  9.7, 16.4,  2.3,,,,, 
2006,04,24,114, 12.7,  8.9, 17.6,  0.2,,,,, 
2006,04,25,115, 12.8,  9.1, 17.5,  0.0,,,,, 
2006,04,26,116, 15.2, 10.3, 23.5,  0.0,,,,, 
2006,04,27,117, 19.8, 14.9, 26.6,  0.0,,,,, 
2006,04,28,118, 21.4, 15.7, 27.9,  0.0,,,,, 
2006,04,29,119, 21.5, 16.7, 27.8,  0.0,,,,, 
2006,04,30,120, 21.8, 17.0, 27.6,  0.0,,,,, 
2006,05,01,121, 21.1, 14.9, 27.7,  0.0,,,,, 
2006,05,02,122, 20.1, 13.6, 26.7,  0.0,,,,, 
2006,05,03,123, 19.3, 14.0, 25.5,  0.0,,,,, 
2006,05,04,124, 18.0, 12.3, 24.1,  0.0,,,,, 
2006,05,05,125, 17.5, 12.0, 24.3,  0.0,,,,, 
2006,05,06,126, 17.8, 13.3, 23.7,  0.0,,,,, 
2006,05,07,127, 18.5, 13.5, 24.8,  0.0,,,,, 
2006,05,08,128, 20.1, 14.9, 25.0,  0.0,,,,, 
2006,05,09,129, 19.1, 13.3, 25.5,  0.0,,,,, 
2006,05,10,130, 20.2, 13.5, 27.6,  0.0,,,,, 
2006,05,11,131, 23.7, 18.4, 29.3,  0.0,,,,, 
2006,05,12,132, 22.9, 16.9, 29.4,  0.0,,,,, 
2006,05,13,133, 20.8, 14.6, 28.8,  0.0,,,,, 
2006,05,14,134, 21.5, 14.8, 30.3,  0.0,,,,, 
2006,05,15,135, 25.1, 19.8, 30.6,  0.0,,,,, 
2006,05,16,136, 24.0, 18.1, 30.4,  0.0,,,,, 
2006,05,17,137, 24.7, 19.2, 31.0,  0.0,,,,, 
2006,05,18,138, 24.3, 19.1, 31.2,  0.0,,,,, 
2006,05,19,139, 19.4, 16.6, 27.9,  1.3,,,,, 
2006,05,20,140, 15.1, 12.8, 19.5,  2.8,,,,, 
2006,05,21,141, 17.6, 14.3, 22.1,  1.7,,,,, 
2006,05,22,142, 15.2, 12.6, 20.6,  8.2,,,,, 
2006,05,23,143, 15.8, 13.6, 20.0,  0.0,,,,, 
2006,05,24,144, 16.5, 12.5, 21.4,  0.1,,,,, 
2006,05,25,145, 17.5, 12.4, 22.9,  0.0,,,,, 
2006,05,26,146, 16.9, 12.0, 23.1,  0.0,,,,, 
2006,05,27,147, 13.3,  7.5, 20.2,  0.0,,,,, 
2006,05,28,148, 15.3,  9.6, 21.7,  0.0,,,,, 
2006,05,29,149, 16.5, 10.6, 23.4,  0.0,,,,, 
2006,05,30,150, 19.0, 12.8, 26.0,  0.0,,,,, 
2006,05,31,151, 20.9, 15.0, 27.4,  0.0,,,,, 
2006,06,01,152, 21.9, 16.1, 27.6,  0.0,,,,, 
2006,06,02,153, 20.8, 16.1, 25.6,  0.0,,,,, 
2006,06,03,154, 21.6, 16.1, 29.1,  0.0,,,,, 
2006,06,04,155, 23.3, 17.5, 29.5,  0.0,,,,, 
2006,06,05,156, 22.3, 16.1, 28.8,  0.0,,,,, 
2006,06,06,157, 23.0, 17.0, 29.2,  0.0,,,,, 
2006,06,07,158, 22.8, 16.2, 29.2,  0.0,,,,, 
2006,06,08,159, 20.8, 14.3, 28.6,  0.0,,,,, 
2006,06,09,160, 21.0, 14.6, 27.7,  0.0,,,,, 
2006,06,10,161, 21.0, 15.6, 27.8,  0.0,,,,, 
2006,06,11,162, 19.7, 16.0, 26.2,  0.0,,,,, 
2006,06,12,163, 18.6, 14.3, 23.8,  0.0,,,,, 
2006,06,13,164, 17.1, 11.1, 24.1,  0.0,,,,, 
2006,06,14,165, 16.7, 11.4, 23.0,  0.0,,,,, 
2006,06,15,166, 19.8, 13.9, 27.6,  0.0,,,,, 
2006,06,16,167, 24.6, 18.0, 33.0,  0.0,,,,, 
2006,06,17,168, 27.0, 19.9, 33.3,  0.0,,,,, 
2006,06,18,169, 25.9, 18.4, 33.2,  0.0,,,,, 
2006,06,19,170, 23.4, 16.0, 31.8,  0.0,,,,, 
2006,06,20,171, 25.5, 18.6, 32.3,  0.0,,,,, 
2006,06,21,172, 27.0, 19.8, 33.9,  0.0,,,,, 
2006,06,22,173, 27.6, 19.9, 35.9,  0.0,,,,, 
2006,06,23,174, 29.5, 20.8, 37.5,  0.0,,,,, 
2006,06,24,175, 30.6, 23.0, 37.6,  0.0,,,,, 
2006,06,25,176, 30.3, 23.8, 37.4,  0.0,,,,, 
2006,06,26,177, 30.8, 24.5, 38.1,  0.0,,,,, 
2006,06,27,178, 30.0, 24.0, 38.3,  0.0,,,,, 
2006,06,28,179, 27.3, 21.2, 33.5,  0.0,,,,, 
2006,06,29,180, 26.7, 19.3, 33.6,  0.0,,,,, 
2006,06,30,181, 26.2, 19.2, 33.3,  0.0,,,,, 
2006,07,01,182, 25.5, 18.3, 33.0,  0.0,,,,, 
2006,07,02,183, 24.7, 17.3, 33.1,  0.0,,,,, 
2006,07,03,184, 25.2, 18.9, 32.2,  0.0,,,,, 
2006,07,04,185, 24.7, 17.6, 32.4,  0.0,,,,, 
2006,07,05,186, 22.8, 15.4, 31.1,  0.0,,,,, 
2006,07,06,187, 22.1, 14.7, 30.2,  0.0,,,,, 
2006,07,07,188, 23.6, 15.5, 33.5,  0.0,,,,, 
2006,07,08,189, 28.3, 21.3, 37.2,  0.0,,,,, 
2006,07,09,190, 30.8, 22.8, 38.0,  0.0,,,,, 
2006,07,10,191, 28.3, 20.2, 38.1,  0.0,,,,, 
2006,07,11,192, 25.2, 18.0, 34.0,  0.0,,,,, 
2006,07,12,193, 22.0, 14.0, 30.6,  0.0,,,,, 
2006,07,13,194, 26.0, 19.6, 33.9,  0.0,,,,, 
2006,07,14,195, 28.3, 21.5, 35.0,  0.0,,,,, 
2006,07,15,196, 27.7, 20.3, 35.8,  0.0,,,,, 
2006,07,16,197, 29.8, 22.2, 37.8,  0.0,,,,, 
2006,07,17,198, 32.2, 24.1, 40.5,  0.0,,,,, 
2006,07,18,199, 32.4, 23.8, 40.7,  0.0,,,,, 
2006,07,19,200, 30.8, 22.7, 39.6,  0.0,,,,, 
2006,07,20,201, 30.8, 23.5, 39.5,  0.0,,,,, 
2006,07,21,202, 33.3, 25.4, 41.2,  0.0,,,,, 
2006,07,22,203, 35.0, 28.1, 42.3,  0.0,,,,, 
2006,07,23,204, 36.2, 29.1, 43.1,  0.0,,,,, 
2006,07,24,205, 36.1, 28.7, 43.2,  0.0,,,,, 
2006,07,25,206, 34.8, 26.9, 42.7,  0.0,,,,, 
2006,07,26,207, 33.1, 25.4, 42.4,  0.0,,,,, 
2006,07,27,208, 29.8, 21.3, 39.8,  0.0,,,,, 
2006,07,28,209, 27.8, 19.7, 37.6,  0.0,,,,, 
2006,07,29,210, 26.3, 18.3, 36.0,  0.0,,,,, 
2006,07,30,211, 25.3, 17.1, 33.2,  0.0,,,,, 
2006,07,31,212, 24.5, 16.6, 32.7,  0.0,,,,, 
2006,08,01,213, 22.9, 14.4, 32.4,  0.0,,,,, 
2006,08,02,214, 25.9, 17.6, 34.1,  0.0,,,,, 
2006,08,03,215, 26.4, 18.9, 34.8,  0.0,,,,, 
2006,08,04,216, 25.1, 17.0, 35.1,  0.0,,,,, 
2006,08,05,217, 24.1, 16.8, 32.8,  0.0,,,,, 
2006,08,06,218, 24.0, 16.1, 32.8,  0.0,,,,, 
2006,08,07,219, 23.5, 16.1, 33.0,  0.0,,,,, 
2006,08,08,220, 22.2, 14.8, 32.4,  0.0,,,,, 
2006,08,09,221, 28.0, 20.7, 37.0,  0.0,,,,, 
2006,08,10,222, 30.4, 23.5, 37.2,  0.0,,,,, 
2006,08,11,223, 27.4, 19.9, 36.9,  0.0,,,,, 
2006,08,12,224, 24.4, 16.1, 33.6,  0.0,,,,, 
2006,08,13,225, 26.0, 18.6, 34.1,  0.0,,,,, 
2006,08,14,226, 25.4, 17.8, 34.2,  0.0,,,,, 
2006,08,15,227, 24.2, 16.6, 33.3,  0.0,,,,, 
2006,08,16,228, 23.7, 15.7, 32.7,  0.0,,,,, 
2006,08,17,229, 23.8, 16.1, 34.4,  0.0,,,,, 
2006,08,18,230, 26.9, 18.3, 35.8,  0.0,,,,, 
2006,08,19,231, 25.8, 17.8, 35.9,  0.0,,,,, 
2006,08,20,232, 25.3, 17.4, 34.9,  0.0,,,,, 
2006,08,21,233, 24.5, 16.4, 33.7,  0.0,,,,, 
2006,08,22,234, 26.6, 19.6, 36.0,  0.0,,,,, 
2006,08,23,235, 25.8, 17.2, 36.3,  0.0,,,,, 
2006,08,24,236, 25.7, 18.1, 34.8,  0.0,,,,, 
2006,08,25,237, 24.2, 15.6, 34.8,  0.0,,,,, 
2006,08,26,238, 23.6, 15.3, 33.2,  0.0,,,,, 
2006,08,27,239, 26.5, 19.6, 35.5,  0.0,,,,, 
2006,08,28,240, 27.6, 20.5, 36.2,  0.0,,,,, 
2006,08,29,241, 26.1, 18.4, 36.4,  0.0,,,,, 
2006,08,30,242, 26.1, 19.5, 34.9,  0.0,,,,, 
2006,08,31,243, 27.4, 19.5, 36.0,  0.0,,,,, 
2006,09,01,244, 28.7, 21.4, 37.2,  0.0,,,,, 
2006,09,02,245, 27.3, 20.8, 37.4,  0.0,,,,, 
2006,09,03,246, 25.9, 19.2, 34.6,  0.0,,,,, 
2006,09,04,247, 26.6, 20.2, 35.3,  0.0,,,,, 
2006,09,05,248, 28.2, 20.7, 38.1,  0.0,,,,, 
2006,09,06,249, 28.5, 21.2, 38.4,  0.0,,,,, 
2006,09,07,250, 28.8, 20.9, 37.7,  0.0,,,,, 
2006,09,08,251, 26.0, 18.7, 37.8,  0.0,,,,, 
2006,09,09,252, 21.3, 14.1, 31.0,  0.0,,,,, 
2006,09,10,253, 21.9, 15.0, 32.0,  0.0,,,,, 
2006,09,11,254, 25.7, 19.3, 36.9,  0.0,,,,, 
2006,09,12,255, 29.8, 23.1, 39.8,  0.0,,,,, 
2006,09,13,256, 31.3, 23.8, 40.0,  0.0,,,,, 
2006,09,14,257, 24.7, 16.5, 38.2,  0.0,,,,, 
2006,09,15,258, 17.3,  9.6, 29.9,  0.0,,,,, 
2006,09,16,259, 16.3,  9.8, 25.7,  0.0,,,,, 
2006,09,17,260, 21.1, 14.9, 32.3,  0.0,,,,, 
2006,09,18,261, 25.6, 19.3, 33.5,  0.0,,,,, 
2006,09,19,262, 23.3, 16.3, 33.5,  0.0,,,,, 
2006,09,20,263, 22.0, 17.0, 30.1,  0.0,,,,, 
2006,09,21,264, 23.7, 18.1, 32.4,  0.0,,,,, 
2006,09,22,265, 23.1, 16.9, 32.6,  0.0,,,,, 
2006,09,23,266, 21.3, 14.6, 29.5,  0.0,,,,, 
2006,09,24,267, 22.2, 14.4, 31.6,  0.0,,,,, 
2006,09,25,268, 24.0, 16.3, 33.6,  0.0,,,,, 
2006,09,26,269, 26.0, 18.6, 34.5,  0.0,,,,, 
2006,09,27,270, 25.8, 18.8, 34.6,  0.0,,,,, 
2006,09,28,271, 26.1, 19.5, 34.4,  0.0,,,,, 
2006,09,29,272, 24.8, 18.5, 34.4,  0.0,,,,, 
2006,09,30,273, 21.9, 15.1, 32.8,  0.0,,,,, 
2006,10,01,274, 18.5, 13.2, 26.5,  0.0,,,,, 
2006,10,02,275, 17.7, 12.7, 23.5,  0.0,,,,, 
2006,10,03,276, 17.7, 13.2, 23.9,  0.0,,,,, 
2006,10,04,277, 15.1, 12.2, 23.9,  0.2,,,,, 
2006,10,05,278, 13.7, 11.3, 18.1,  1.9,,,,, 
2006,10,06,279, 14.6,  9.1, 23.6,  0.4,,,,, 
2006,10,07,280, 17.3, 11.7, 26.4,  0.2,,,,, 
2006,10,08,281, 20.4, 14.3, 29.9,  0.0,,,,, 
2006,10,09,282, 22.1, 15.7, 30.2,  0.0,,,,, 
2006,10,10,283, 19.7, 13.2, 29.8,  0.0,,,,, 
2006,10,11,284, 17.8, 11.7, 26.7,  0.0,,,,, 
2006,10,12,285, 20.5, 14.1, 29.3,  0.0,,,,, 
2006,10,13,286, 20.6, 14.4, 29.2,  0.0,,,,, 
2006,10,14,287, 16.6, 10.1, 26.2,  0.0,,,,, 
2006,10,15,288, 15.6,  9.8, 24.1,  0.0,,,,, 
2006,10,16,289, 16.4, 10.3, 23.0,  0.0,,,,, 
2006,10,17,290, 15.4, 10.4, 22.2,  0.0,,,,, 
2006,10,18,291, 16.7, 11.3, 24.1,  0.0,,,,, 
2006,10,19,292, 18.9, 12.6, 27.4,  0.0,,,,, 
2006,10,20,293, 21.9, 16.3, 29.9,  0.0,,,,, 
2006,10,21,294, 22.1, 16.1, 30.1,  0.0,,,,, 
2006,10,22,295, 21.6, 14.4, 30.0,  0.0,,,,, 
2006,10,23,296, 22.9, 16.5, 30.0,  0.0,,,,, 
2006,10,24,297, 22.2, 15.4, 29.8,  0.0,,,,, 
2006,10,25,298, 19.0, 12.7, 28.5,  0.0,,,,, 
2006,10,26,299, 16.9, 11.4, 25.0,  0.0,,,,, 
2006,10,27,300, 17.8, 10.4, 26.5,  0.0,,,,, 
2006,10,28,301, 19.5, 11.9, 26.8,  0.0,,,,, 
2006,10,29,302, 19.4, 12.2, 26.9,  0.0,,,,, 
2006,10,30,303, 14.2,  8.3, 23.7,  0.0,,,,, 
2006,10,31,304, 11.5,  6.1, 20.4,  0.0,,,,, 
2006,11,01,305, 13.4, 10.5, 19.4,  0.4,,,,, 
2006,11,02,306, 13.6, 10.3, 19.8, 10.0,,,,, 
2006,11,03,307, 12.6, 10.2, 17.6,  0.0,,,,, 
2006,11,04,308, 14.4, 10.5, 20.6,  0.0,,,,, 
2006,11,05,309, 16.8, 12.5, 23.3,  0.0,,,,, 
2006,11,06,310, 19.8, 15.2, 27.6,  0.0,,,,, 
2006,11,07,311, 21.4, 16.2, 27.6,  0.0,,,,, 
2006,11,08,312, 18.6, 13.7, 25.7,  0.0,,,,, 
2006,11,09,313, 11.8,  6.2, 19.6,  0.0,,,,, 
2006,11,10,314, 10.5,  5.6, 17.2,  0.0,,,,, 
2006,11,11,315, 10.6,  7.0, 17.2,  6.3,,,,, 
2006,11,12,316,  9.2,  4.3, 15.2,  0.0,,,,, 
2006,11,13,317,  9.5,  7.4, 14.5,  6.4,,,,, 
2006,11,14,318, 12.4,  9.1, 17.8,  1.7,,,,, 
2006,11,15,319, 13.3,  8.8, 18.7,  0.0,,,,, 
2006,11,16,320, 13.6, 11.4, 18.7,  0.3,,,,, 
2006,11,17,321, 13.7, 10.2, 19.7,  0.0,,,,, 
2006,11,18,322, 15.4, 10.2, 20.4,  0.0,,,,, 
2006,11,19,323, 16.5, 12.3, 22.2,  0.0,,,,, 
2006,11,20,324, 16.2, 12.9, 22.2,  0.0,,,,, 
2006,11,21,325, 15.2, 12.7, 18.3,  0.0,,,,, 
2006,11,22,326, 12.1,  7.2, 17.7,  0.0,,,,, 
2006,11,23,327, 10.3,  5.2, 15.5,  0.9,,,,, 
2006,11,24,328,  8.5,  4.0, 14.6,  0.0,,,,, 
2006,11,25,329,  8.8,  3.6, 14.8,  0.0,,,,, 
2006,11,26,330,  8.1,  4.7, 14.2,  7.1,,,,, 
2006,11,27,331,  8.1,  5.1, 11.1,  2.0,,,,, 
2006,11,28,332,  5.4,  1.1,  9.8,  0.0,,,,, 
2006,11,29,333,  5.3,  1.5,  9.9,  0.0,,,,, 
2006,11,30,334,  5.6,  0.8, 12.1,  0.0,,,,, 
2006,12,01,335,  8.6,  4.6, 16.6,  0.0,,,,, 
2006,12,02,336, 11.0,  7.1, 17.2,  0.0,,,,, 
2006,12,03,337,  9.3,  3.6, 16.3,  0.0,,,,, 
2006,12,04,338,  9.3,  3.7, 17.4,  0.0,,,,, 
2006,12,05,339, 10.2,  4.8, 17.9,  0.0,,,,, 
2006,12,06,340, 10.9,  5.2, 18.9,  0.0,,,,, 
2006,12,07,341, 11.4,  6.0, 18.8,  0.0,,,,, 
2006,12,08,342, 13.0,  7.8, 18.3,  0.0,,,,, 
2006,12,09,343, 11.4,  9.6, 15.6,  8.8,,,,, 
2006,12,10,344, 10.2,  7.6, 13.9, 11.2,,,,, 
2006,12,11,345,  8.2,  6.5, 10.8,  0.0,,,,, 
2006,12,12,346,  9.3,  7.6, 12.3, 11.4,,,,, 
2006,12,13,347, 11.3, 10.2, 13.0,  3.1,,,,, 
2006,12,14,348, 12.8, 10.8, 16.4,  0.2,,,,, 
2006,12,15,349, 12.2,  9.0, 16.1,  0.5,,,,, 
2006,12,16,350,  7.1,  1.9, 12.4,  0.0,,,,, 
2006,12,17,351,  5.5,  1.6, 10.7,  0.0,,,,, 
2006,12,18,352,  4.2, -0.2, 10.8,  0.0,,,,, 
2006,12,19,353,  3.9, -0.4,  9.7,  0.0,,,,, 
2006,12,20,354,  3.8, -0.3,  8.7,  0.0,,,,, 
2006,12,21,355,  4.9,  3.5,  8.5, 12.2,,,,, 
2006,12,22,356,  4.6,  1.4,  9.7,  6.2,,,,, 
2006,12,23,357,  6.1,  3.3,  9.8,  0.0,,,,, 
2006,12,24,358,  8.4,  5.9, 12.3,  0.0,,,,, 
2006,12,25,359,  9.3,  6.9, 11.7,  0.0,,,,, 
2006,12,26,360, 10.5,  9.5, 11.9, 15.3,,,,, 
2006,12,27,361,  8.8,  6.3, 12.3, 14.1,,,,, 
2006,12,28,362,  5.1,  1.4,  9.6,  0.0,,,,, 
2006,12,29,363,  6.2,  2.4, 12.2,  0.0,,,,, 
2006,12,30,364,  6.0,  1.2, 11.5,  0.0,,,,, 
2006,12,31,365,  6.0,  2.8, 10.5,  0.0,,,,, 
2007,01,01,001,  6.5,  2.6, 14.0,  0.0,,,,, 
2007,01,02,002, 10.8,  8.1, 15.7,  0.0,,,,, 
2007,01,03,003,  9.1,  4.5, 14.5,  0.0,,,,, 
2007,01,04,004,  9.5,  7.3, 12.0,  1.6,,,,, 
2007,01,05,005,  5.2,  0.9, 10.1,  0.0,,,,, 
2007,01,06,006,  6.3,  2.4, 13.2,  0.0,,,,, 
2007,01,07,007,  8.9,  4.8, 15.4,  0.0,,,,, 
2007,01,08,008, 11.5,  8.3, 18.0,  0.0,,,,, 
2007,01,09,009, 11.1,  5.8, 17.8,  0.0,,,,, 
2007,01,10,010,  9.9,  5.2, 17.4,  0.0,,,,, 
2007,01,11,011,  4.8,  0.2, 12.1,  0.0,,,,, 
2007,01,12,012,  1.5, -1.4,  6.0,  0.0,,,,, 
2007,01,13,013,  1.0, -2.6,  6.4,  0.0,,,,, 
2007,01,14,014,  2.1, -2.3,  7.0,  0.0,,,,, 
2007,01,15,015,  2.3, -1.9,  9.4,  0.0,,,,, 
2007,01,16,016,  2.8, -1.3,  9.1,  0.0,,,,, 
2007,01,17,017,  4.9,  1.6, 11.4,  0.0,,,,, 
2007,01,18,018,  6.5,  2.6, 14.0,  0.0,,,,, 
2007,01,19,019,  9.9,  5.5, 15.8,  0.0,,,,, 
2007,01,20,020, 10.0,  5.7, 15.7,  0.0,,,,, 
2007,01,21,021,  8.8,  4.5, 15.0,  0.0,,,,, 
2007,01,22,022,  8.4,  3.5, 15.3,  0.0,,,,, 
2007,01,23,023,  8.1,  2.2, 15.2,  0.0,,,,, 
2007,01,24,024,  8.1,  3.2, 14.8,  0.0,,,,, 
2007,01,25,025,  8.8,  3.9, 14.7,  0.0,,,,, 
2007,01,26,026,  8.0,  2.8, 14.2,  0.0,,,,, 
2007,01,27,027,  9.1,  5.7, 13.0,  0.0,,,,, 
2007,01,28,028,  9.6,  5.2, 14.1,  0.0,,,,, 
2007,01,29,029,  9.2,  3.9, 16.6,  0.0,,,,, 
2007,01,30,030, 10.3,  4.7, 17.2,  0.0,,,,, 
2007,01,31,031,  9.0,  3.2, 16.9,  0.0,,,,, 
2007,02,01,032,  8.1,  2.4, 14.6,  0.0,,,,, 
2007,02,02,033,  7.0,  1.5, 13.7,  0.0,,,,, 
2007,02,03,034,  9.3,  4.6, 16.1,  0.0,,,,, 
2007,02,04,035, 12.5,  7.6, 20.8,  0.0,,,,, 
2007,02,05,036, 14.2,  8.7, 21.3,  0.0,,,,, 
2007,02,06,037, 12.6,  6.0, 21.6,  0.0,,,,, 
2007,02,07,038, 12.0,  9.6, 17.9,  0.6,,,,, 
2007,02,08,039,  9.2,  6.2, 12.4, 13.1,,,,, 
2007,02,09,040, 11.0, 10.0, 12.7, 24.7,,,,, 
2007,02,10,041, 11.3, 10.6, 12.9, 22.7,,,,, 
2007,02,11,042, 10.0,  8.7, 13.3,  4.0,,,,, 
2007,02,12,043,  8.6,  5.0, 13.4,  1.4,,,,, 
2007,02,13,044,  8.5,  4.9, 13.7,  4.3,,,,, 
2007,02,14,045,  8.9,  4.2, 16.1,  0.0,,,,, 
2007,02,15,046, 11.9,  8.6, 16.9,  0.0,,,,, 
2007,02,16,047, 12.7,  8.1, 19.9,  0.0,,,,, 
2007,02,17,048, 15.3, 10.7, 21.3,  0.0,,,,, 
2007,02,18,049, 13.9,  7.9, 21.4,  0.0,,,,, 
2007,02,19,050,  9.7,  4.4, 17.0,  0.0,,,,, 
2007,02,20,051,  8.7,  3.1, 14.9,  0.0,,,,, 
2007,02,21,052, 10.2,  7.6, 14.5,  0.1,,,,, 
2007,02,22,053,  9.4,  7.6, 13.4, 13.6,,,,, 
2007,02,23,054,  5.5,  1.1,  9.6,  0.0,,,,, 
2007,02,24,055,  6.0,  4.5,  9.4,  0.2,,,,, 
2007,02,25,056,  6.5,  4.9,  9.7, 10.3,,,,, 
2007,02,26,057,  6.0,  4.5,  8.9, 11.1,,,,, 
2007,02,27,058,  5.1,  1.8,  8.9,  4.5,,,,, 
2007,02,28,059,  4.3, -0.2,  8.7,  2.5,,,,, 
2007,03,01,060,  4.3,  0.9,  9.6,  0.0,,,,, 
2007,03,02,061,  7.3,  2.8, 14.2,  0.0,,,,, 
2007,03,03,062,  9.9,  5.1, 18.1,  0.0,,,,, 
2007,03,04,063, 12.5,  7.5, 19.4,  0.0,,,,, 
2007,03,05,064, 14.3, 11.3, 19.4,  0.0,,,,, 
2007,03,06,065, 13.4,  7.7, 19.5,  0.0,,,,, 
2007,03,07,066, 12.5,  9.4, 19.5,  0.0,,,,, 
2007,03,08,067, 11.3,  6.3, 16.7,  0.0,,,,, 
2007,03,09,068, 10.8,  7.2, 16.8,  0.0,,,,, 
2007,03,10,069, 11.8,  6.9, 20.2,  0.0,,,,, 
2007,03,11,070, 15.7, 10.5, 24.8,  0.0,,,,, 
2007,03,12,071, 18.6, 12.9, 25.1,  0.0,,,,, 
2007,03,13,072, 20.0, 14.4, 25.9,  0.0,,,,, 
2007,03,14,073, 17.6, 12.1, 25.9,  0.0,,,,, 
2007,03,15,074, 17.4, 11.9, 24.5,  0.0,,,,, 
2007,03,16,075, 17.7, 11.3, 25.1,  0.0,,,,, 
2007,03,17,076, 19.2, 13.2, 25.3,  0.0,,,,, 
2007,03,18,077, 17.0, 11.2, 25.0,  0.0,,,,, 
2007,03,19,078, 14.6,  9.2, 22.9,  0.0,,,,, 
2007,03,20,079, 14.1, 11.3, 18.4,  0.0,,,,, 
2007,03,21,080, 12.5,  8.2, 18.5,  0.0,,,,, 
2007,03,22,081, 13.0,  8.3, 21.7,  0.0,,,,, 
2007,03,23,082, 16.2,  9.8, 24.8,  0.0,,,,, 
2007,03,24,083, 17.9, 12.9, 25.1,  0.0,,,,, 
2007,03,25,084, 15.8, 11.5, 23.6,  0.0,,,,, 
2007,03,26,085, 13.0, 10.6, 19.3,  3.1,,,,, 
2007,03,27,086,  8.4,  3.8, 13.6,  0.0,,,,, 
2007,03,28,087,  9.0,  4.1, 16.9,  0.0,,,,, 
2007,03,29,088, 11.9,  6.2, 21.2,  0.0,,,,, 
2007,03,30,089, 14.6,  8.9, 22.3,  0.0,,,,, 
2007,03,31,090, 16.2, 10.5, 22.8,  0.0,,,,, 
2007,04,01,091, 15.9, 11.0, 22.8,  0.0,,,,, 
2007,04,02,092, 14.4,  9.2, 21.6,  0.0,,,,, 
2007,04,03,093, 16.1, 10.7, 22.7,  0.0,,,,, 
2007,04,04,094, 17.5, 13.0, 23.1,  0.0,,,,, 
2007,04,05,095, 18.0, 13.4, 25.1,  0.0,,,,, 
2007,04,06,096, 18.9, 13.0, 25.2,  0.0,,,,, 
2007,04,07,097, 15.4, 11.1, 24.4,  0.0,,,,, 
2007,04,08,098, 13.8,  9.9, 19.7,  0.0,,,,, 
2007,04,09,099, 14.2, 10.2, 18.7,  0.0,,,,, 
2007,04,10,100, 13.0,  7.7, 19.4,  0.0,,,,, 
2007,04,11,101, 11.5,  6.4, 19.5,  2.4,,,,, 
2007,04,12,102,  9.3,  3.9, 16.5,  0.0,,,,, 
2007,04,13,103, 12.1,  6.2, 20.7,  0.0,,,,, 
2007,04,14,104, 11.8,  8.6, 20.8,  4.0,,,,, 
2007,04,15,105, 10.6,  5.7, 19.7,  3.5,,,,, 
2007,04,16,106, 15.3,  9.6, 24.4,  0.0,,,,, 
2007,04,17,107, 14.9,  9.8, 24.7,  0.0,,,,, 
2007,04,18,108,  9.1,  4.5, 15.4,  0.0,,,,, 
2007,04,19,109,  8.4,  4.2, 15.2,  0.0,,,,, 
2007,04,20,110,  9.9,  5.5, 18.4,  0.7,,,,, 
2007,04,21,111, 10.8,  7.1, 18.8,  2.8,,,,, 
2007,04,22,112, 10.2,  7.9, 16.1, 10.5,,,,, 
2007,04,23,113, 12.7,  6.8, 21.2,  0.3,,,,, 
2007,04,24,114, 16.5, 11.0, 24.0,  0.0,,,,, 
2007,04,25,115, 17.3, 11.4, 24.4,  0.0,,,,, 
2007,04,26,116, 17.8, 11.9, 26.2,  0.0,,,,, 
2007,04,27,117, 20.3, 13.2, 28.6,  0.0,,,,, 
2007,04,28,118, 24.4, 18.6, 30.8,  0.0,,,,, 
2007,04,29,119, 21.1, 14.0, 30.9,  0.0,,,,, 
2007,04,30,120, 19.5, 12.8, 27.0,  0.0,,,,, 
2007,05,01,121, 17.3, 10.5, 27.2,  0.0,,,,, 
2007,05,02,122, 13.6, 11.4, 17.0,  0.8,,,,, 
2007,05,03,123, 10.5,  4.6, 16.5,  0.0,,,,, 
2007,05,04,124, 10.7,  6.5, 17.8,  5.8,,,,, 
2007,05,05,125, 13.5,  8.1, 20.6,  0.0,,,,, 
2007,05,06,126, 17.7, 11.7, 27.5,  0.0,,,,, 
2007,05,07,127, 22.8, 16.7, 30.4,  0.0,,,,, 
2007,05,08,128, 24.9, 19.0, 31.1,  0.0,,,,, 
2007,05,09,129, 22.4, 15.2, 31.2,  0.0,,,,, 
2007,05,10,130, 19.4, 11.8, 28.1,  0.0,,,,, 
2007,05,11,131, 20.2, 14.3, 26.4,  0.0,,,,, 
2007,05,12,132, 17.3,  9.9, 26.5,  0.0,,,,, 
2007,05,13,133, 17.6, 10.3, 27.0,  0.0,,,,, 
2007,05,14,134, 21.0, 13.3, 29.9,  0.0,,,,, 
2007,05,15,135, 22.8, 15.8, 30.1,  0.0,,,,, 
2007,05,16,136, 20.4, 13.0, 29.2,  0.0,,,,, 
2007,05,17,137, 19.5, 11.9, 28.4,  0.0,,,,, 
2007,05,18,138, 19.8, 12.4, 27.2,  0.0,,,,, 
2007,05,19,139, 19.9, 12.5, 27.3,  0.0,,,,, 
2007,05,20,140, 21.4, 15.2, 27.5,  0.0,,,,, 
2007,05,21,141, 19.9, 13.5, 26.3,  0.0,,,,, 
2007,05,22,142, 19.2, 12.1, 26.4,  0.0,,,,, 
2007,05,23,143, 20.3, 13.2, 28.3,  0.0,,,,, 
2007,05,24,144, 22.8, 15.1, 30.2,  0.0,,,,, 
2007,05,25,145, 24.4, 17.6, 30.8,  0.0,,,,, 
2007,05,26,146, 23.5, 16.7, 30.6,  0.0,,,,, 
2007,05,27,147, 21.2, 14.0, 30.6,  0.0,,,,, 
2007,05,28,148, 21.7, 13.9, 30.6,  0.0,,,,, 
2007,05,29,149, 24.0, 15.9, 31.2,  0.0,,,,, 
2007,05,30,150, 23.1, 15.7, 31.3,  0.0,,,,, 
2007,05,31,151, 22.2, 14.3, 30.5,  0.0,,,,, 
2007,06,01,152, 23.3, 15.4, 30.9,  0.0,,,,, 
2007,06,02,153, 23.0, 15.6, 30.7,  0.0,,,,, 
2007,06,03,154, 21.6, 13.9, 31.0,  0.0,,,,, 